Volver al catálogo

STARLINK-34553

ActivoComunicacionesVLEO
NORAD 64681·PAYLOAD·🇺🇸 United States

Lanzado Jun 28, 2025 desde Cape Canaveral Space Force Station

Loading…

Próximos Pases (próximas 24 horas)

TLE

ActualizadoSource: CelesTrak SupGP

Época: Sep 14, 2026, 20:46 UTC

1 64681C 25139T   26257.86576389 -.00015760  00000+0 -46576-3 0  2577
2 64681  53.1578 323.8053 0001225  87.1738 201.2439 15.34389873    17

Sigue STARLINK-34553 en tiempo real con AllMySat

Download on the App Store